Flag for Germany Weather past 2 weeks in Apolda, Thuringia, Germany

Now
52 °F

Scattered clouds.


Feels Like: 49 °F
Forecast: 44 / 68 °F
Wind: 8 mph from West

Location: Erfurt-Bindersleben

Current Time: May 30, 2015 at 10:48:13 AM

Latest Report: May 30, 2015 at 10:00 AM


Visibility: 37 mi

Pressure: 29.90 "Hg

Humidity: 72%

Dew point: 43 °F

Location of ApoldaLocation

Historic Weather in Apolda — Graph

°F

Apolda temperature yesterday

Maximum temperature yesterday: 65 °F (at 5:00 PM)
Minimum temperature yesterday: 46 °F (at 6:00 AM)
Average temperature yesterday: 56 °F

Past Weeks' High & Low Weather Summary

 TemperatureHumidityPressure
High69 °F (May 18, 5:00 PM)97% (May 29, 5:00 AM)30.38 "Hg (May 29, 5:00 AM)
Low35 °F (May 22, 5:00 AM)30% (May 19, 3:00 PM)29.65 "Hg (May 19, 5:00 AM)
Average54 °F66%30.05 "Hg
* Reported May 15 10:00 AM — May 30 10:00 AM, Apolda, Weather by CustomWeather, © 2015

Note: Actual official high and low records may vary slightly from our data, if they occured in-between our weather recording intervals... More about our weather records

Advertising

Apolda weather history for previous 24 hours

 ConditionsComfort  
Time TempWeatherWind HumidityBarometerVisibility
10:00 AM
Sat, May 30
52 °FScattered clouds.8 mph72%29.90 "Hg37 mi
9:00 AM50 °FPartly sunny.9 mph77%29.89 "Hg37 mi
8:00 AM49 °FPassing clouds.7 mph85%29.87 "Hg31 mi
7:00 AM46 °FScattered clouds.6 mph89%29.86 "Hg31 mi
6:00 AM46 °FLight rain. Overcast.5 mph92%29.85 "Hg16 mi
5:00 AM45 °FLight rain. Overcast.8 mph93%29.85 "Hg12 mi
4:00 AM53 °FOvercast.6 mph73%29.78 "Hg25 mi
3:00 AM53 °FOvercast.7 mph70%29.79 "Hg25 mi
2:00 AM53 °FOvercast.7 mph73%29.79 "Hg31 mi
1:00 AM51 °FPassing clouds.6 mph80%29.80 "Hg31 mi
12:00 AM53 °FPassing clouds.7 mph74%29.80 "Hg37 mi
11:00 PM
Fri, May 29
56 °FOvercast.8 mph69%29.79 "Hg43 mi
10:00 PM54 °FOvercast.5 mph81%29.78 "Hg37 mi
9:00 PM57 °FOvercast.6 mph76%29.77 "Hg43 mi
8:00 PM58 °FOvercast.3 mph80%29.77 "Hg43 mi
7:00 PM57 °FSprinkles. Overcast.5 mph82%29.78 "Hg37 mi
6:00 PM63 °FLight rain. Overcast.5 mph52%29.77 "Hg37 mi
5:00 PM65 °FOvercast.6 mph47%29.78 "Hg47 mi
4:00 PM65 °FOvercast.6 mph48%29.80 "Hg47 mi
3:00 PM63 °FOvercast.10 mph50%29.83 "Hg43 mi
2:00 PM64 °FOvercast.9 mph41%29.82 "Hg43 mi
1:00 PM63 °FOvercast.6 mph49%29.84 "Hg37 mi
12:00 PM61 °FOvercast.5 mph56%29.86 "Hg31 mi
11:00 AM59 °FOvercast.6 mph61%29.89 "Hg19 mi
10:00 AM57 °FPartly sunny.2 mph72%29.90 "Hg19 mi
Weather by CustomWeather, © 2015

See weather overviewHow to use our weather pages